Погода в Вилюйске

Погода в Вилюйске : погода сейчас, прогноз погоды и архив. Всё, что Вы хотите узнать о погоде в Вилюйске!

Хотите узнать прогноз погоды в Вилюйске? Тогда Вам сюда: Погода в Вилюйске

Поиск расширенной информации на нашем сайте:

Другие новости

Новости СМИ2

Главная страница сайта

Новости сайта

03.07.2017

Напоминаем, что на нашем специализированном сайте Метеоцентр.Азия вы можете получить высокодетализированные автоматические прогнозы погоды по пунктам России, СНГ и мира в авиационном формате (включающие направление и скорость ветра, видимость, явления погоды, количество и форму облачности, нижнюю и верхнюю границу облачности).

Рекомендуем: Одежда и обувь Adidas: адидас дисконт каталог. Купить Фирменные товары adidas.

Погода в Вилюйске - сегодня

Время (UTC), дата Ветер
(°,м/с) 
Видим.   Явления Облачность Т
(°С)
Тd
(°С)
f(%) Тe
(°С)
Pmin
(гПа)
dP
(гПа)
Po
(мм)
O2
(г/м3)
Тmin Tmax R s Состояние
почвы
21 20.11.17 250 (З) 20000 м  слаб. снег  10/0 средняя, верхняя 
[As trans|Ci fib]
-29.1 -32.2 74 -33  1006.8  -1.1  743  337           
00 21.11.17 240 (ЮЗ) 20000 м  слаб. снег  10/0 средняя 
[As trans]
-25.8 -28.9 75 -29  1005.7  -0.9  743  332  -34.9    0.7  31  равномерный
сухой снег
100% 
03 21.11.17 250 (З) 20000 м  слаб. снег  10/0 средняя 
[As trans]
-22.6 -25.1 80 -26  1004.8  -0.7  742  328           
06 21.11.17 260 (З) 20000 м  слаб. снег  10/0 средняя 
[As trans]
-20.3 -22.8 80 -25  1004.7  742  325           
09 21.11.17 260 (З) 20000 м  слаб. снег  9/0 средняя 
[Ac As]
-18.8 -21.4 80 -21  1005.3  0.7  743  323           
12 21.11.17 280 (З) 20000 м  слаб. снег  10/0 средняя 
[Ac As]
-16.1 -18.7 80 -18  1005.9  0.7  743  320    -15.8     
15 21.11.17 060 (СВ) 20000 м  слаб. снег  10/0 средняя 
[As op]
-14.7 -16.7 85 -15  1006.9  1.2  744  318           
18 21.11.17 090 (В) 20000 м  слаб. снег  10/0 средняя 
[As op]
-21.9 -24.4 80 -25  1009.2  1.8  746  328           
21 21.11.17 060 (СВ) 20000 м  слаб. снег  10/0 средняя 
[As op]
-23.8 -26.3 80 -24  1010.7  1.4  747  331           
00 22.11.17 280 (З) 20000 м  слаб. снег  10/0 средняя 
[Ac As]
-23 -25.5 80 -23  1011.4  0.7  747  330  -24.3    0.9  32  равномерный
сухой снег
100% 
03 22.11.17 тихо ()   20000 м  слаб. снег  10/0 средняя 
[As op]
-19.6 -22.2 80 -20  1012.4  1.2  748  326           
06 22.11.17 140 (ЮВ) 20000 м  слаб. снег  10/0 средняя 
[As op]
-18.5 -21.1 80 -19  1013.7  1.3  749  325           
09 22.11.17 090 (В) 20000 м  слаб. снег  10/0 средняя 
[As op]
-19.1 -21.7 80 -19  1015.8  2.1  751  327           
12 22.11.17 260 (З) 20000 м  слаб. снег  10/0 средняя 
[As op]
-19.4 -22 80 -20  1017  1.2  752  328    -18.2  0.6     
15 22.11.17 320 (СЗ) 20000 м  {снег}  10/0 средняя, верхняя 
[As trans|Ci fib]
-21.8 -24.3 80 -26  1018.4  1.1  752  331           
18 22.11.17 320 (СЗ) 20000 м  слаб. снег  10/0 верхняя 
[Cs]
-24.2 -27.3 75 -29  1019.8  1.2  753  335           
21 22.11.17 310 (СЗ) 20000 м  {снег}  10/0 верхняя 
[Cs]
-25.8 -28.9 75 -29  1020.4  0.6  754  337           
00 23.11.17 310 (СЗ) 20000 м  {снег}  10/0 средняя, верхняя 
[Ac trans|Cs]
-26.9 -30 75 -30  1021.4  0.9  754  339  -27.5    0.2  32  равномерный
сухой снег
100% 
03 23.11.17 300 (СЗ) 20000 м    10/0 средняя, верхняя 
[Ac trans|Cs]
-26.4 -29.5 75 -30  1022.2  0.8  755  339  -28.7         
06 23.11.17 320 (СЗ) 20000 м  слаб. снег  10/0 средняя 
[As trans]
-25.1 -28.2 75 -30  1022.9  0.8  756  337           
09 23.11.17 310 (СЗ) 20000 м  слаб. снег  10/0 средняя 
[As trans]
-25.8 -28.9 75 -29  1024.7  1.7  757  339           
12 23.11.17 300 (СЗ) 20000 м  слаб. снег  10/0 средняя 
[As trans]
-27 -30.1 75 -30  1025.7  0.9  758  341    -24.5  0.3     
15 23.11.17 300 (СЗ) 20000 м  слаб. снег  10/0 средняя 
[As trans]
-28.5 -31.5 75 -32  1026  0.2  758  343           
18 23.11.17 310 (СЗ) 20000 м  {снег}  10/0 средняя, верхняя 
[As trans|Cs]
-29.9 -33 74 -34  1026.3  0.2  758  345           
21 23.11.17 310 (СЗ) 20000 м  слаб. снег  10/0 средняя, верхняя 
[As trans|Cs]
-30.6 -33.6 75 -34  1026.1  -0.3  758  346           
Время (UTC), дата Ветер
(°,м/с) 
Видим.   Явления Облачность Т
(°С)
Тd
(°С)
f(%) Тe
(°С)
Pmin
(гПа)
dP
(гПа)
Po
(мм)
O2
(г/м3)
Тmin Tmax R s Состояние
почвы

Для получения пояснительной информации подведите курсор к названию столбца.

ПОГОДА в Вилюйске - архив

Всё, что Вы хотите узнать о погоде в Вилюйске - удобно и подробно!

Выберите нужную дату (начиная с 1 января 2015* года) и нажмите кнопку "Найти".
Будут отображены архивные сводки погоды по пункту Вилюйск, начиная с указанной даты.


Отображать данные в формате CSV (для использования в таблицах Excel)


Внимание! Наш архив погоды предназначен исключительно для личного некоммерческого использования в познавательных целях. Если Вам необходимы официальные справки о состоянии погоды (для производственных, юридических, коммерческих и т.п. целей), обращайтесь в органы Росгидромета.

*Примечание: данная дата относится к архиву по метеостанциям СССР (Россия, СНГ, Балтия).
Архив по метеостанциям Зарубежной Европы и Азии (кроме Китая) хранится 10 дней, по другим регионам земного шара (Китай, Африка, Америка, Австралия, Океания) - 1 день.

Вилюйск - район местоположения метеостанции


Название, широта, долгота, высота метеостанции:
Вилюйск 63.8°ш. 121.6°д. 111 м над ур. моря [Российская Федерация]

Дополнительная информация

В oтличие oт бoльшинства пoгoдных сайтoв мы публикуем пoдрoбную метеoинфoрмацию в детальнoм прoфессиoнальнoм фoрмате.

Характеристики температуры и влажнoсти вoздуха измеряются на высoте 2 м в тени вдали oт зданий и деревьев.
Скoрoсть ветра измеряется на высoте 10 м (на урoвне рoста челoвека скoрoсть ветра ниже в 1.5-2 раза). Если метеoстанция нахoдится в гoрoде или в лесу, тo скoрoсть ветра занижена на 2-4 м/с пo сравнению с oткрытым местoм. Скoрoсть ветра над акватoриями крупных рек и oзёр, а также на вершинах хoлмoв на 2-5 м/с выше, чем в oбычных услoвиях.
Атмoсфернoе давление в разных тoчках местнoсти мoжет значительнo oтличаться oт давления на метеoстанции, в зависимoсти oт услoвий рельефа (при пoдъёме на 10 м давление пoнижается примернo на 1 мм рт.ст.).